Location: Biharia
(46.4333°N, 22.8000°E)
Time: 10:46:07
(UTC+00:00)

Cosmos 494 Rocket - Pass Details

Date: 16 October 2021
Orbit: 743 x 770 km, 74.1° (Epoch: 02 December)

Event Time Altitude Azimuth Distance (km) Brightness Sun altitude
Rises 16:04:51 0° 342° (NNW) 3,243 7.4 -5.0°
Reaches altitude 10° 16:07:20 10° 348° (NNW) 2,309 6.6 -5.4°
Maximum altitude 16:12:24 49° 63° (ENE) 981 4.2 -6.3°
Drops below altitude 10° 16:17:25 10° 138° (SE) 2,277 6.1 -7.1°
Sets 16:19:50 0° 144° (SE) 3,193 6.9 -7.6°
